ORBCOMM FM06

Last updated on Mon Sep 21 2026 00:03:10 GMT+0000 (Coordinated Universal Time)

1 25118U 97084G 26262.76029265 .00000694 00000+0 22523-3 0 9995 2 25118 45.0147 317.3603 0002039 260.2191 192.6000 14.47755185508095
UTC large
Height (km)
Speed (km/s)
/
Latitude / Longitude
Inclination (degrees)
Orbital Period (minutes)
Azimuth
Elevation
Range (km)
Doppler Factor

Next 0 passes for location: London (51.5072 / 0.1276)

No passes found over London.
ORBCOMM FM06